User: anonymous   Login
Location: Caltech
(34.1382°N, 118.1253°W)
Time: 07:31:09
(UTC-07:00)
Language:

ALOS - Orbit

View from above orbital plane
View from above orbital plane
View from above satellite
View from above satellite

Ground track
Ground track

The orbit data is extracted from the following two-line orbital elements,

1 28931U 06002A   17201.59718918 +.00000273 +00000-0 +62628-4 0  9990
2 28931 097.8423 227.2796 0001263 128.6295 231.5022 14.62370666612340
Epoch (UTC): 20 July 2017 14:19:57
Eccentricity: 0.0001263
inclination: 97.8423°
perigee height: 684 km
apogee height: 686 km
right ascension of ascending node: 227.2796°
argument of perigee: 128.6295°
revolutions per day: 14.62370666
mean anomaly at epoch: 231.5022°
orbit number at epoch: 61234

The dashed part of the orbit path shows where the satellite is in the earth's shadow,  

DLR